User: anonymous   Login
Location: Caltech
(34.1382°N, 118.1253°W)
Time: 19:00:05
(UTC-08:00)
Language:

Oscar 19 - Orbit

View from above orbital plane
View from above orbital plane
View from above satellite
View from above satellite

Ground track
Ground track

The orbit data is extracted from the following two-line orbital elements,

1 20442U 90005G   14330.81130514  .00000228  00000-0  99839-4 0  1143
2 20442 098.4936 265.3550 0012246 032.8960 327.2984 14.32634616297966
Epoch (UTC): 26 November 2014 19:28:16
Eccentricity: 0.0012246
inclination: 98.4936°
perigee height: 774 km
apogee height: 792 km
right ascension of ascending node: 265.3550°
argument of perigee: 32.8960°
revolutions per day: 14.32634616
mean anomaly at epoch: 327.2984°
orbit number at epoch: 29796

The dashed part of the orbit path shows where the satellite is in the earth's shadow,  

DLR